#timestamp,LO_Frequency,Hit,StdDev 
1593061215.0,286046999.6,N
1593061215.9,286046999.6,N
1593061235.7,286046999.6,N
1593061255.6,286046999.2,N
1593061275.4,286046999.5,N
1593061295.3,286046999.0,N
1593061315.1,286046999.4,N
1593061316.0,286046999.4,N
1593061365.9,286046996.5,E
1593061375.8,286046998.3,N
1593061395.6,286047001.6,P
1593061415.5,286047003.7,N
1593061435.3,286047005.9,N
1593061455.1,286047006.0,N
1593061475.9,286047004.4,N
1593061495.7,286047001.8,N
1593061515.5,286047000.3,N
1593061535.4,286047000.1,N
1593061555.2,286047001.4,N
1593061575.1,286047001.8,N
1593061576.0,286047001.8,N
1593061595.8,286047002.0,N
1593061615.6,286047001.0,N
1593061635.5,286046999.9,N
1593061655.3,286046999.8,N
1593061675.1,286047002.6,N
1593061695.9,286047001.9,N
1593061715.7,286047001.9,N
1593061735.6,286046999.9,N
1593061755.4,286047000.7,N
1593061775.2,286047000.3,N
1593061795.1,286046999.9,N
1593061796.0,286046999.9,N
1593061815.8,286047000.6,N
1593061835.7,286046999.9,N
1593061855.5,286047002.3,N
1593061875.3,286046999.8,N
1593061895.2,286047002.2,N
1593061915.9,286046999.8,N
1593061935.7,286046999.9,N
1593061955.6,286047002.2,N
1593061975.4,286047002.8,N
1593061995.2,286047000.0,N
1593062015.1,286047002.8,N
1593062016.0,286047002.8,N
1593062035.8,286047000.1,N
1593062055.7,286046999.9,N
1593062075.5,286047002.8,N
1593062095.3,286047000.3,N
1593062115.2,286047000.2,N
1593062135.0,286047000.8,N
1593062135.9,286047000.8,N
1593062155.8,286046998.4,N
1593062175.6,286046999.0,N
1593062195.4,286046998.7,N
1593062215.3,286046998.9,N
1593062235.1,286046998.6,N
1593062255.8,286046998.5,N
1593062275.7,286046999.6,N
1593062295.5,286046997.1,N
1593062315.4,286046999.4,N
1593062335.2,286046999.0,N
1593062355.0,286046998.2,N
1593062355.9,286046998.2,N
1593062375.8,286047001.2,N
1593062395.6,286046996.5,N
1593062415.4,286046998.8,N
1593062435.3,286046999.9,N
1593062455.1,286046998.1,N
1593062475.9,286046998.3,N
1593062495.7,286046999.2,N
1593062515.5,286046999.5,N
1593062535.4,286046998.9,N
1593062555.2,286047001.2,N
1593062575.0,286047001.0,N
1593062575.9,286047001.0,N
1593062595.8,286046998.9,N
1593062615.6,286047000.8,N
1593062635.5,286046999.3,N
1593062655.3,286046998.1,N
1593062675.1,286046999.6,N
1593062695.9,286046999.6,N
1593062715.7,286046997.1,N
1593062735.5,286046999.4,N
1593062755.4,286046998.4,N
1593062775.2,286046998.4,N
1593062795.1,286046998.5,N
1593062796.0,286046998.5,N
1593062815.8,286046998.4,N
1593062835.6,286046998.7,N
1593062855.5,286046998.8,N
1593062875.3,286046996.9,N
1593062895.1,286046999.6,N
1593062915.9,286046997.6,N
1593062935.7,286046996.4,Y
1593062955.6,286046997.2,P
1593062975.4,286046997.6,N
1593062995.2,286046997.7,P
1593063015.1,286046995.3,Y
1593063016.0,286046995.3,P
1593063035.8,286046998.7,N
1593063055.7,286046999.8,N
1593063075.5,286047002.7,N
1593063095.3,286047003.3,N
1593063115.2,286047005.3,N
1593063135.0,286047004.7,N
1593063135.9,286047004.7,N
1593063155.8,286047005.8,N
1593063175.6,286047005.9,N
1593063195.4,286047004.8,N
1593063215.3,286047003.8,N
1593063235.1,286047005.7,N
1593063255.9,286047004.5,N
1593063275.7,286047007.0,N
1593063295.5,286047006.4,N
1593063315.4,286047006.6,N
1593063335.2,286047009.0,N
1593063355.0,286047009.0,N
1593063355.9,286047009.0,N
1593063375.8,286047009.2,N
1593063395.6,286047008.0,N
1593063415.5,286047005.1,N
1593063435.3,286047007.4,N
1593063455.1,286047003.0,N
1593063475.9,286047003.2,N
1593063495.7,286047001.7,N
1593063515.5,286047001.7,N
1593063535.4,286047003.1,N
1593063555.2,286047004.5,N
1593063575.0,286047007.6,N
1593063576.0,286047007.6,N
1593063595.8,286047006.3,N
1593063615.6,286047009.2,Y
1593063635.5,286047004.3,P
1593063655.3,286047002.0,P
1593063675.1,286046999.9,N
1593063695.9,286046999.9,N
1593063715.7,286047000.7,N
1593063735.6,286046998.2,N
1593063755.4,286046999.1,N
1593063775.2,286046999.2,N
1593063795.1,286046996.9,N
1593063796.0,286046996.9,N
1593063815.8,286046997.3,N
1593063835.6,286046998.3,N
1593063855.5,286046999.7,N
1593063875.3,286047001.4,N
1593063895.2,286047003.0,N
1593063915.9,286047004.9,N
1593063935.7,286047007.1,N
1593063955.6,286047006.5,N
1593063975.4,286047006.2,N
1593063995.2,286047006.7,N
1593064015.1,286047005.1,N
1593064016.0,286047005.1,N
1593064035.8,286047007.3,N
1593064055.7,286047006.3,N
1593064075.5,286047009.2,N
1593064095.3,286047006.1,N
1593064115.2,286047010.4,N
1593064135.9,286047007.7,N
1593064155.7,286047010.5,N
1593064175.6,286047008.2,N
1593064195.4,286047008.8,N
1593064215.3,286047008.7,N
1593064235.1,286047004.7,N
1593064236.0,286047004.7,N
1593064255.8,286047007.5,N
1593064275.7,286047006.6,N
1593064295.5,286047006.7,N
1593064315.3,286047007.1,N
1593064335.2,286047006.4,N
1593064355.0,286047006.6,N
1593064355.9,286047006.6,N
1593064375.8,286047006.5,N
1593064395.6,286047008.0,Y
1593064415.4,286047001.2,P
1593064435.3,286046996.6,N
1593064455.1,286046996.8,N
1593064475.8,286046999.1,N
1593064495.7,286046998.4,N
1593064515.5,286046998.8,N
1593064535.4,286047000.0,N
1593064555.2,286047000.5,N
1593064575.0,286047001.6,N
1593064575.9,286047001.6,N
1593064595.8,286047001.5,N
1593064615.6,286046999.8,N
1593064635.4,286046998.5,N
1593064655.3,286047001.0,N
1593064675.1,286047001.0,N
1593064695.9,286046999.2,N
1593064715.7,286046998.8,N
1593064735.5,286046999.2,N
1593064755.4,286046998.5,N
1593064775.2,286047001.6,N
1593064795.0,286047003.8,N
1593064795.9,286047003.8,N
